Weather History for Mount Airy, NC

Change the Weather History Date:

Saturday, March 9, 2013

  Actual Average (KINT) Record (KINT)
Temperature  
Mean Temperature 47 °F -  
Max Temperature 66 °F 55 °F 84 °F (1974)
Min Temperature 28 °F 37 °F 15 °F (1966)
Degree Days  
Heating Degree Days 18    
Moisture  
Dew Point 22 °F    
Average Humidity 42    
Maximum Humidity 74    
Minimum Humidity 17    
Precipitation  
Precipitation 0.00 in - - ()
Sea Level Pressure  
Sea Level Pressure 30.27 in    
Wind  
Wind Speed 2 mph (NE)    
Max Wind Speed 7 mph    
Max Gust Speed -    
Visibility 10 miles    
Events      
Averages and records for this station are not official NWS values.
T = Trace of Precipitation, MM = Missing Value Source: NWS Daily Summary

Daily Weather History Graph

Daily Weather History Graph

Search for Another Location

Airport:

Trip Planner

Search our weather history database for the weather conditions in past years. The results will help you decide how hot, cold, wet, or windy it might be!

Date:

Astronomy

Mar. 09, 2013 Rise Set
Actual Time 6:41 AM EST 6:24 PM EST
Civil Twilight 6:15 AM EST 6:50 PM EST
Nautical Twilight 5:45 AM EST 7:20 PM EST
Astronomical Twilight 5:15 AM EST 7:50 PM EST
Moon 5:01 AM EST (3/9) 4:27 PM EST (3/9)
Length of Visible Light 12h 34m
Length of Day
11h 43m
Waning Crescent, 5% of the Moon is Illuminated
Mar 9
Waning Crescent
Mar 11
New
Mar 19
First Quarter
Mar 27
Full
Apr 3
Last Quarter

Hourly Weather History & Observations

Time (EST) Temp. Windchill Dew Point Humidity Pressure Visibility Wind Dir Wind Speed Gust Speed Precip Events Conditions
12:15 AM 38.1 °F 35.7 °F 23.4 °F 55% 30.30 in 10.0 mi NW 3.5 mph - N/A   Clear
12:35 AM 37.8 °F - 23.5 °F 57% 30.31 in 10.0 mi Calm Calm - N/A   Clear
12:55 AM 36.1 °F 31.4 °F 21.4 °F 55% 30.30 in 10.0 mi North 5.8 mph - N/A   Clear
1:15 AM 36.5 °F 32.7 °F 23.9 °F 60% 30.29 in 10.0 mi North 4.6 mph - N/A   Clear
1:35 AM 36.9 °F 34.3 °F 23.4 °F 58% 30.28 in 10.0 mi North 3.5 mph - N/A   Clear
1:55 AM 36.9 °F 34.3 °F 23.7 °F 59% 30.28 in 10.0 mi North 3.5 mph - N/A   Clear
2:15 AM 36.0 °F 33.3 °F 23.0 °F 59% 30.27 in 10.0 mi North 3.5 mph - N/A   Clear
2:35 AM 35.6 °F - 23.2 °F 61% 30.27 in 10.0 mi Calm Calm - N/A   Clear
2:55 AM 35.1 °F - 23.5 °F 63% 30.27 in 10.0 mi Calm Calm - N/A   Clear
3:15 AM 33.4 °F - 22.6 °F 65% 30.27 in 10.0 mi Calm Calm - N/A   Clear
3:35 AM 31.5 °F - 16.9 °F 55% 30.27 in 10.0 mi Calm Calm - N/A   Clear
3:55 AM 30.0 °F - 16.0 °F 56% 30.27 in 10.0 mi Calm Calm - N/A   Clear
4:15 AM 30.6 °F - 18.5 °F 61% 30.27 in 10.0 mi Calm Calm - N/A   Clear
4:35 AM 30.7 °F - 16.9 °F 56% 30.27 in 10.0 mi Calm Calm - N/A   Clear
4:55 AM 30.2 °F - 17.6 °F 60% 30.27 in 10.0 mi Calm Calm - N/A   Clear
5:15 AM 30.4 °F - 20.8 °F 68% 30.27 in 10.0 mi Calm Calm - N/A   Clear
5:35 AM 29.8 °F - 18.9 °F 64% 30.28 in 10.0 mi Calm Calm - N/A   Clear
5:55 AM 28.0 °F 24.2 °F 16.7 °F 62% 30.28 in 10.0 mi NNE 3.5 mph - N/A   Clear
6:15 AM 29.5 °F - 19.6 °F 67% 30.29 in 10.0 mi Calm Calm - N/A   Clear
6:35 AM 28.4 °F 24.6 °F 18.7 °F 67% 30.29 in 10.0 mi North 3.5 mph - N/A   Clear
6:55 AM 29.1 °F - 19.9 °F 69% 30.30 in 10.0 mi Calm Calm - N/A   Clear
7:15 AM 30.0 °F - 21.7 °F 71% 30.30 in 10.0 mi Calm Calm - N/A   Clear
7:35 AM 34.2 °F - 26.6 °F 74% 30.30 in 10.0 mi Calm Calm - N/A   Clear
7:55 AM 39.2 °F - 30.6 °F 71% 30.31 in 10.0 mi Calm Calm - N/A   Clear
8:15 AM 41.4 °F - 28.2 °F 60% 30.31 in 10.0 mi Calm Calm - N/A   Clear
8:35 AM 43.0 °F - 29.3 °F 59% 30.32 in 10.0 mi Calm Calm - N/A   Clear
8:55 AM 45.9 °F - 29.3 °F 52% 30.32 in 10.0 mi Calm Calm - N/A   Clear
9:15 AM 49.3 °F - 32.4 °F 52% 30.32 in 10.0 mi NW 4.6 mph - N/A   Clear
9:35 AM 51.8 °F - 30.2 °F 44% 30.33 in 10.0 mi Calm Calm - N/A   Clear
9:55 AM 52.9 °F - 31.8 °F 45% 30.33 in 10.0 mi WSW 4.6 mph - N/A   Clear
10:15 AM 52.3 °F - 28.0 °F 39% 30.32 in 10.0 mi Calm Calm - N/A   Clear
10:35 AM 54.9 °F - 30.4 °F 39% 30.32 in 10.0 mi Calm Calm - N/A   Clear
10:55 AM 56.1 °F - 30.9 °F 38% 30.32 in 10.0 mi Calm Calm - N/A   Clear
11:15 AM 57.6 °F - 29.5 °F 34% 30.32 in 10.0 mi Calm Calm - N/A   Clear
11:35 AM 60.1 °F - 32.0 °F 35% 30.31 in 10.0 mi Calm Calm - N/A   Clear
11:55 AM 60.3 °F - 29.3 °F 31% 30.31 in 10.0 mi Calm Calm - N/A   Clear
12:15 PM 59.0 °F - 27.7 °F 30% 30.30 in 10.0 mi Calm Calm - N/A   Clear
12:35 PM 60.1 °F - 25.9 °F 27% 30.29 in 10.0 mi SE 3.5 mph - N/A   Clear
12:55 PM 61.5 °F - 27.5 °F 28% 30.29 in 10.0 mi Calm Calm - N/A   Clear
1:15 PM 63.1 °F - 25.9 °F 24% 30.28 in 10.0 mi ESE 3.5 mph - N/A   Clear
1:35 PM 63.9 °F - 24.8 °F 23% 30.27 in 10.0 mi Calm Calm - N/A   Clear
1:55 PM 64.4 °F - 23.7 °F 21% 30.26 in 10.0 mi ENE 4.6 mph - N/A   Clear
2:15 PM 64.9 °F - 21.4 °F 19% 30.25 in 10.0 mi Calm Calm - N/A   Clear
2:35 PM 65.8 °F - 22.3 °F 19% 30.25 in 10.0 mi SE 3.5 mph - N/A   Clear
2:55 PM 65.5 °F - 22.5 °F 19% 30.24 in 10.0 mi ESE 3.5 mph - N/A   Clear
3:15 PM 65.5 °F - 20.5 °F 18% 30.23 in 10.0 mi East 6.9 mph - N/A   Clear
3:35 PM 65.5 °F - 19.4 °F 17% 30.22 in 10.0 mi ESE 3.5 mph - N/A   Clear
3:55 PM 66.2 °F - 20.7 °F 18% 30.22 in 10.0 mi SW 3.5 mph - N/A   Clear
4:15 PM 66.6 °F - 19.6 °F 17% 30.22 in 10.0 mi ENE 3.5 mph - N/A   Clear
4:35 PM 66.7 °F - 21.0 °F 18% 30.22 in 10.0 mi North 3.5 mph - N/A   Clear
4:55 PM 64.9 °F - 22.1 °F 20% 30.22 in 10.0 mi Calm Calm - N/A   Clear
5:15 PM 64.4 °F - 21.7 °F 20% 30.22 in 10.0 mi SSW 3.5 mph - N/A   Clear
5:35 PM 62.8 °F - 21.2 °F 20% 30.22 in 10.0 mi Calm Calm - N/A   Clear
5:55 PM 61.7 °F - 21.0 °F 21% 30.23 in 10.0 mi Calm Calm - N/A   Clear
6:15 PM 58.8 °F - 21.0 °F 23% 30.24 in 10.0 mi Calm Calm - N/A   Clear
6:35 PM 55.0 °F - 15.3 °F 21% 30.24 in 10.0 mi Calm Calm - N/A   Clear
6:55 PM 52.0 °F - 11.3 °F 20% 30.24 in 10.0 mi Calm Calm - N/A   Clear
7:15 PM 49.5 °F - 13.3 °F 24% 30.25 in 10.0 mi Calm Calm - N/A   Clear
7:35 PM 46.6 °F - 5.9 °F 19% 30.24 in 10.0 mi ESE 3.5 mph - N/A   Clear
7:55 PM 46.4 °F - 6.4 °F 20% 30.24 in 10.0 mi Calm Calm - N/A   Clear
8:15 PM 44.2 °F - 4.6 °F 20% 30.25 in 10.0 mi Calm Calm - N/A   Clear
8:35 PM 43.2 °F - 5.9 °F 22% 30.25 in 10.0 mi Calm Calm - N/A   Clear
8:55 PM 42.8 °F - 9.5 °F 26% 30.25 in 10.0 mi Calm Calm - N/A   Clear
9:15 PM 41.9 °F - 12.0 °F 30% 30.25 in 10.0 mi Calm Calm - N/A   Clear
9:35 PM 41.2 °F - 13.3 °F 32% 30.27 in 10.0 mi Calm Calm - N/A   Clear
9:55 PM 41.4 °F - 17.1 °F 38% 30.27 in 10.0 mi Calm Calm - N/A   Clear
10:15 PM 41.4 °F - 19.6 °F 42% 30.27 in 10.0 mi Calm Calm - N/A   Clear
10:35 PM 40.5 °F - 20.5 °F 45% 30.27 in 10.0 mi Calm Calm - N/A   Clear
10:55 PM 40.1 °F - 21.4 °F 47% 30.27 in 10.0 mi Calm Calm - N/A   Clear
11:15 PM 41.9 °F - 27.5 °F 57% 30.27 in 10.0 mi Calm Calm - N/A   Clear
11:35 PM 40.3 °F - 21.2 °F 47% 30.27 in 10.0 mi Calm Calm - N/A   Clear
11:55 PM 39.2 °F - 25.2 °F 57% 30.28 in 10.0 mi Calm Calm - N/A   Clear